Theta_e
311 311 311 311 310 309 309 309 309 309 309 309 310 310 311 311 311 312 312 313 313 314 313 313 312 313 305 297 295 303 313 310 307 305 301 307 301 300 298 301 303 305 307 311 312 313 311
310 310 310 309 309 308 309 309 309 309 309 310 310 310 311 311 311 311 312 313 313 313 313 314 313 312 301 292 302 306 307 308 305 304 301 301 305 301 299 300 300 304 305 307 311 313 314
309 309 309 309 309 309 309 309 309 309 309 310 310 310 310 311 311 311 312 313 313 313 315 313 313 309 299 297 306 308 308 307 306 304 300 302 301 304 300 296 302 301 298 301 302 307 309
309 309 309 309 309 309 309 309 309 309 309 309 309 310 310 310 311 311 312 313 313 314 315 314 313 306 297 306 310 308 309 306 307 306 303 304 301 297 299 302 299 296 297 293 301 301 303
309 309 309 309 309 309 308 309 309 308 309 309 308 310 309 310 311 311 312 312 313 313 315 314 307 303 296 309 303 306 309 302 304 304 303 303 299 295 297 294 293 295 291 293 296 303 302
308 309 309 309 309 308 308 309 309 309 308 308 309 310 309 309 310 311 311 311 312 314 313 310 308 298 300 297 302 304 307 306 301 300 298 296 295 293 293 292 286 289 290 293 294 299 300
308 308 308 308 309 308 308 308 308 309 309 308 308 309 309 308 310 310 308 305 300 299 300 295 296 295 297 302 305 302 305 301 300 298 291 294 289 286 291 293 294 293 292 292 296 300 299
307 307 308 308 308 307 307 308 308 308 308 308 308 309 308 308 309 309 305 300 300 301 293 299 299 298 300 301 296 300 303 295 294 291 293 291 286 291 293 293 292 292 290 290 294 297 296
307 307 307 307 307 307 307 307 307 308 308 308 307 308 308 308 308 305 302 302 305 302 293 294 297 296 299 300 295 296 300 296 292 290 291 288 290 292 291 290 290 291 290 291 290 294 297
307 307 307 307 308 308 307 308 307 308 307 307 307 307 308 307 303 303 301 305 306 303 287 288 293 296 299 299 293 300 303 298 293 289 290 289 293 290 290 289 291 287 292 292 292 291 288
307 307 307 308 308 308 308 308 308 308 307 307 307 308 307 306 302 301 303 306 303 299 275 290 293 302 299 294 295 296 303 298 291 291 292 288 288 288 288 289 291 288 293 291 291 289 289
308 308 308 308 309 309 309 308 308 308 308 308 308 308 307 304 302 304 305 303 300 285 275 286 293 292 292 293 293 296 296 300 299 293 293 291 296 292 290 291 291 293 291 291 291 289 282
309 309 309 309 309 308 308 309 309 308 308 308 308 307 305 304 301 305 303 299 285 278 288 285 287 291 290 288 289 291 290 290 289 285 285 289 290 293 293 288 292 290 287 281 280 281 280
309 308 309 309 308 308 308 308 308 308 308 307 307 303 306 306 307 306 299 290 279 283 285 291 290 290 286 289 289 289 288 286 292 289 287 283 282 289 293 290 288 289 287 282 276 278 282
308 308 308 308 308 308 307 307 307 307 307 306 304 304 304 306 306 302 295 284 282 285 289 288 289 285 285 288 288 288 287 286 290 291 284 283 283 293 294 294 293 289 285 290 284 286 283
308 308 308 308 307 308 308 307 307 308 307 306 300 301 303 305 305 301 292 285 287 290 292 291 284 287 283 286 285 286 286 290 289 293 293 287 282 290 292 294 295 291 293 284 285 278 277
308 308 308 308 308 307 307 307 307 307 307 305 300 299 304 303 303 297 287 287 289 293 293 289 287 286 287 286 286 285 285 289 292 291 293 290 286 285 290 287 286 286 288 288 288 286 281
308 309 309 308 309 309 308 308 306 307 306 303 297 294 303 303 294 289 289 289 292 292 295 292 293 290 288 287 286 286 285 289 294 294 288 292 288 283 285 291 293 290 288 290 284 283 285
308 308 309 310 309 309 308 307 307 308 306 300 293 293 303 301 288 288 289 289 291 291 291 291 290 291 292 288 284 287 288 293 294 292 290 292 286 280 282 288 291 287 289 290 290 289 285
308 308 309 310 310 309 308 307 307 308 307 302 295 290 294 295 292 288 286 287 287 293 292 293 291 292 290 287 290 287 288 292 294 293 296 294 288 284 279 282 287 285 287 289 288 285 285
307 307 309 310 310 309 308 307 307 307 306 299 292 290 292 286 287 286 287 288 287 287 293 293 289 290 289 285 286 286 289 290 292 294 294 291 284 286 287 287 288 287 286 287 286 288 284
307 308 309 309 309 309 307 307 307 307 305 296 289 289 292 288 288 288 288 287 287 289 289 287 287 289 290 287 288 285 288 288 287 292 291 291 285 287 284 287 287 284 287 288 288 288 288
308 308 309 309 308 307 306 306 306 307 304 296 294 293 292 289 287 286 287 287 287 288 290 293 290 289 288 291 293 294 295 293 292 289 289 289 287 285 280 285 285 281 286 288 289 291 290
308 308 308 307 306 305 305 306 306 307 306 299 297 295 289 286 286 288 288 289 287 289 288 291 293 291 295 298 297 295 294 292 291 291 291 288 287 286 281 283 274 286 294 293 292 294 296
308 308 307 305 305 304 305 305 305 306 307 300 299 295 290 285 288 288 289 289 290 290 289 291 295 297 299 295 288 287 289 290 291 290 287 290 288 283 280 279 283 286 291 291 291 291 297
307 307 305 304 304 303 304 304 305 306 307 304 300 300 293 287 288 290 288 289 287 288 289 292 297 300 295 291 287 281 281 285 284 288 289 290 290 285 283 278 276 289 294 296 296 287 299
306 305 303 303 304 304 304 304 304 305 306 304 302 301 296 288 292 291 288 287 290 289 287 290 293 294 294 289 282 282 281 287 283 283 285 284 285 282 281 280 284 293 294 295 284 291 302
304 303 303 303 303 302 303 304 304 304 304 305 302 301 296 291 293 294 295 290 290 289 285 292 291 293 292 287 285 285 284 285 284 287 284 284 283 283 284 281 279 293 292 288 296 301 298
302 302 301 302 301 301 301 303 303 304 304 304 299 303 302 294 293 299 299 300 298 296 291 292 293 292 294 290 289 288 285 287 286 283 288 284 284 284 285 285 292 291 288 294 298 296 297
Wind_Speed
15 15 16 16 16 16 15 15 15 16 16 16 17 18 19 19 19 19 18 17 16 16 15 12 9 7 3 2 8 2 9 11 9 7 6 4 10 11 16 10 17 22 22 14 21 13 14
16 17 17 17 17 17 17 17 17 18 18 18 19 19 20 20 21 21 20 20 16 14 11 6 7 3 1 6 1 4 9 10 3 4 3 4 5 9 9 15 18 10 19 22 16 17 18
16 16 16 17 17 18 18 19 19 20 20 20 20 20 21 21 21 22 20 19 17 17 11 3 7 5 3 8 3 11 12 4 3 2 3 5 8 9 3 10 11 15 17 12 15 23 19
15 16 16 16 17 17 18 19 19 20 20 20 20 20 22 22 22 22 23 22 20 14 3 6 8 2 7 4 6 11 8 7 7 6 4 7 5 6 7 9 7 11 13 23 23 12 9
15 16 16 16 17 17 18 18 18 19 19 20 20 19 20 20 21 22 23 22 14 2 6 10 3 1 7 5 6 10 7 9 12 4 5 3 5 7 6 13 8 13 21 26 22 21 18
16 17 17 17 17 18 18 19 19 19 20 20 20 19 21 21 20 21 24 17 2 9 5 3 2 4 4 13 11 17 8 12 6 7 4 3 6 10 13 15 20 17 19 19 18 15 22
17 17 18 18 19 19 20 20 20 21 21 21 22 22 22 22 21 20 12 3 5 1 4 5 8 7 16 11 16 6 8 4 4 4 1 2 9 18 17 19 20 10 11 17 16 7 20
17 18 18 18 19 20 20 21 22 22 22 21 22 23 23 22 20 18 4 5 6 1 10 8 14 12 14 7 7 10 2 2 4 11 4 4 15 13 13 13 18 18 16 9 8 9 7
18 18 18 19 19 20 21 22 22 22 22 22 22 21 21 20 22 2 2 5 7 5 4 9 6 5 6 8 6 12 1 2 6 7 7 9 11 6 15 17 14 18 22 19 11 9 15
18 18 18 18 18 19 22 22 22 23 23 22 23 21 19 19 2 3 1 7 2 6 3 3 3 1 8 14 4 10 3 2 3 8 7 10 12 13 11 14 16 17 8 11 16 13 13
18 19 19 18 18 20 21 23 23 23 25 24 23 21 16 7 5 2 2 5 3 4 5 9 3 3 14 4 11 1 8 3 10 15 10 13 9 8 11 12 11 15 15 12 9 10 11
18 18 19 19 20 21 21 22 23 24 24 26 25 22 10 3 3 4 5 2 3 3 4 5 7 12 18 8 15 7 12 4 4 9 13 19 16 8 6 5 8 9 13 18 14 11 15
18 19 19 20 21 23 23 22 24 25 25 27 26 19 4 3 2 3 3 2 2 4 4 4 8 12 17 7 13 13 17 7 3 7 3 7 16 18 15 13 12 9 9 8 11 13 18
18 19 19 19 21 23 24 25 25 25 26 29 26 4 3 2 5 5 1 2 4 1 4 6 8 16 4 9 12 12 12 7 5 3 6 5 7 7 12 18 15 12 16 7 13 12 15
17 19 19 20 20 22 23 26 27 27 26 28 17 1 1 3 2 0 1 1 3 3 4 7 14 4 3 4 9 8 13 8 2 2 5 6 4 9 4 9 8 11 9 18 6 4 7
17 17 19 19 21 20 21 25 27 28 28 26 4 3 3 7 3 1 1 2 3 4 7 6 5 4 7 13 10 8 7 4 7 1 2 3 8 3 8 5 8 3 1 9 8 6 8
18 17 19 17 19 22 23 24 26 26 28 20 2 0 3 7 1 4 1 3 5 7 6 4 7 9 11 12 6 8 6 12 4 5 4 4 3 3 5 7 10 5 8 6 6 11 4
16 17 18 19 18 19 20 21 25 24 23 7 4 1 5 4 1 1 2 6 6 7 1 6 8 11 10 7 8 8 8 6 9 6 10 2 3 6 10 6 5 5 5 10 9 18 10
16 17 18 16 16 17 18 20 21 20 18 4 5 4 2 3 2 3 4 6 6 5 5 3 4 4 5 6 7 8 9 5 11 6 4 2 2 6 6 3 4 3 4 7 6 5 13
16 17 19 18 16 16 17 19 21 21 18 2 3 4 2 4 1 2 6 6 5 6 10 4 9 10 4 7 10 8 11 9 7 9 10 3 6 10 9 7 6 11 11 11 6 9 13
18 18 18 18 17 15 16 18 20 19 17 1 3 2 1 4 2 8 3 5 9 6 4 7 4 6 7 7 18 20 14 13 12 7 8 2 9 12 13 15 14 16 20 19 16 14 11
17 18 18 17 16 16 16 17 19 17 15 2 3 3 2 5 7 6 4 3 7 6 6 10 6 14 16 16 19 26 22 16 15 7 11 6 5 11 14 15 16 22 20 20 20 18 17
16 17 17 16 17 16 16 17 18 16 7 1 1 1 2 4 3 3 3 3 9 16 11 10 14 17 18 20 18 20 21 22 18 7 10 7 4 6 11 11 12 17 23 24 20 17 17
16 16 15 16 17 17 16 16 16 16 6 1 1 0 2 5 4 6 10 14 16 14 16 22 19 15 10 21 25 19 15 15 16 15 13 5 12 6 5 5 10 8 3 3 10 14 16
17 15 15 16 16 15 16 16 16 17 12 2 2 2 2 5 5 13 10 11 15 13 15 14 14 11 14 11 7 10 3 3 1 3 8 14 7 4 4 6 14 20 2 1 6 14 10
16 15 15 16 15 15 15 15 17 17 14 3 3 2 2 3 4 6 11 9 7 9 9 6 12 7 3 3 3 5 5 5 4 3 1 8 8 6 5 5 6 2 7 1 3 12 12
15 16 17 17 17 16 16 16 15 16 17 5 2 5 2 4 6 4 5 5 4 4 7 10 9 5 2 5 4 3 4 6 5 7 4 4 4 11 11 8 8 2 5 2 4 3 9
16 17 18 18 17 17 17 17 16 15 15 7 3 7 4 4 9 11 13 6 5 4 5 7 8 2 3 5 4 4 3 4 5 4 5 3 3 4 7 6 9 6 4 8 3 7 8
17 17 18 18 18 18 17 17 16 14 14 12 4 3 5 5 8 16 21 23 24 19 6 4 5 5 2 3 2 2 3 4 6 5 2 2 2 3 3 3 10 14 14 16 18 15 15
Wind_Direction
17 16 15 14 8 6 5 359 358 353 351 348 345 343 341 339 337 335 332 325 324 321 322 318 301 298 348 338 260 358 348 331 324 348 343 278 224 212 222 224 225 235 240 234 243 241 235
11 12 5 4 4 1 358 355 353 353 350 346 343 341 339 337 335 332 329 322 323 317 320 296 257 240 341 321 255 262 320 317 345 9 353 278 241 242 266 239 222 230 241 246 245 235 238
7 7 5 3 359 357 355 352 350 348 345 342 339 338 337 335 333 329 325 317 317 315 314 222 188 189 222 247 291 304 307 280 207 200 331 249 263 236 238 247 251 257 254 235 231 234 236
6 4 1 0 357 355 353 350 348 345 341 340 337 337 335 335 333 328 324 317 314 312 3 151 157 186 263 249 290 287 280 277 239 223 215 250 238 287 234 293 257 231 235 241 226 213 232
4 1 0 357 356 354 348 347 345 343 339 337 335 333 333 333 331 325 318 307 307 261 127 132 117 353 292 290 295 323 219 275 295 194 204 184 147 219 210 225 246 219 232 227 237 220 220
3 0 359 357 354 350 346 345 344 342 342 339 335 334 333 333 331 327 319 308 1 122 139 166 139 254 255 323 317 315 273 256 266 282 120 151 196 221 216 209 219 228 237 252 238 217 217
4 1 359 356 352 348 343 342 342 341 340 340 337 335 335 333 332 331 329 14 5 333 38 284 295 276 277 289 292 285 310 266 242 241 237 219 228 222 225 228 246 265 263 247 240 208 223
3 1 359 357 353 348 344 343 341 338 337 337 337 334 334 332 332 325 318 78 94 341 308 276 265 249 269 267 288 327 24 341 284 254 172 230 251 263 248 238 236 241 248 242 269 255 255
360 358 356 353 349 346 345 344 341 337 336 335 335 332 330 328 324 329 350 127 117 143 260 294 252 266 307 305 303 323 320 293 270 263 253 262 274 283 230 239 241 232 239 239 252 285 283
356 355 352 348 344 343 343 342 340 336 335 334 334 330 327 329 208 345 240 139 324 196 263 300 329 101 336 318 254 332 230 268 270 285 269 262 252 219 234 229 232 236 220 228 237 242 249
356 354 350 345 345 345 342 340 339 336 332 329 331 328 321 316 314 237 54 331 134 201 295 330 332 330 329 344 310 338 358 205 275 281 258 238 288 219 224 234 216 243 227 251 264 252 262
356 354 351 348 349 348 345 341 338 337 333 329 332 329 315 128 199 261 309 307 188 230 264 339 329 333 346 337 334 303 329 280 300 284 257 258 252 262 249 243 221 244 210 219 231 245 246
358 355 353 350 351 350 347 343 343 341 338 331 332 332 183 161 12 334 314 154 248 235 352 327 326 329 331 316 329 331 324 320 1 313 280 255 241 238 244 257 245 232 210 182 208 215 237
355 354 351 350 351 351 349 346 345 345 341 335 333 340 183 242 297 311 249 187 232 31 282 304 313 315 293 353 336 327 316 306 198 314 291 320 315 213 212 219 242 213 209 205 202 209 234
352 352 350 350 350 351 350 347 346 344 344 340 331 330 115 326 297 208 309 100 209 236 269 308 318 299 294 298 322 323 315 290 314 79 332 305 273 304 277 256 204 187 200 226 302 223 228
350 348 349 348 349 347 350 349 348 344 344 344 337 321 30 333 329 18 46 268 250 234 306 297 282 252 286 316 322 329 307 288 328 2 207 301 293 213 303 335 198 270 305 188 210 221 213
345 343 344 342 344 349 350 350 350 348 343 342 4 240 10 338 294 41 42 278 285 279 298 284 284 281 285 308 299 312 273 293 276 335 260 297 256 271 265 176 256 329 233 231 258 239 292
342 341 340 339 338 340 344 344 348 349 347 5 336 271 7 323 360 31 285 313 304 289 266 284 272 267 268 298 291 289 259 267 335 332 308 286 293 283 284 288 296 282 293 257 244 220 241
339 338 333 331 335 338 342 342 339 342 4 329 345 296 348 317 15 335 316 291 272 282 288 294 282 280 307 292 293 257 269 268 297 269 280 4 239 302 294 175 111 233 230 268 269 277 252
338 336 331 332 332 337 342 341 339 339 355 325 328 326 359 44 36 354 323 293 307 284 280 265 294 283 262 272 261 278 272 293 273 276 271 261 242 249 262 308 316 296 289 276 260 258 246
337 332 331 332 334 337 346 343 337 339 351 321 4 30 2 317 344 311 287 278 295 303 332 304 264 246 294 281 298 276 274 276 269 262 240 254 242 234 252 268 271 270 273 271 253 244 256
324 327 329 334 340 346 350 341 336 341 342 51 356 343 3 287 294 291 282 258 290 317 319 297 259 281 287 280 276 287 289 273 258 243 235 201 253 224 246 256 260 269 260 254 254 252 247
324 323 328 338 346 349 350 343 339 338 347 326 131 175 249 277 289 290 278 304 308 317 289 240 284 287 287 288 298 288 276 273 251 222 198 195 212 218 253 258 272 270 252 244 244 239 239
321 326 336 348 348 345 342 337 332 331 341 282 186 177 260 278 245 286 292 296 293 298 273 287 288 287 292 317 298 281 263 252 256 247 213 197 206 227 263 246 253 263 167 279 243 249 244
324 330 343 345 335 339 334 331 331 322 326 211 178 191 226 272 280 290 311 311 304 293 275 276 294 296 317 303 309 319 335 245 229 215 205 209 181 211 224 222 284 290 301 342 281 267 236
325 334 339 330 329 328 324 321 322 323 315 290 213 175 173 278 246 281 308 309 309 321 305 274 313 339 306 309 333 328 323 308 324 333 262 206 196 210 194 236 250 133 161 45 333 273 233
330 331 327 323 322 319 320 317 318 319 322 308 265 194 209 257 257 207 265 308 283 290 288 294 332 315 303 356 344 327 303 318 308 316 331 145 196 217 219 242 274 140 75 292 245 26 337
328 325 324 324 325 326 319 318 318 316 315 325 263 187 221 242 273 249 263 219 250 215 258 331 319 136 290 9 347 343 292 316 294 274 296 276 260 203 222 238 256 54 323 220 333 318 319
327 328 326 326 330 325 321 316 313 316 312 317 265 184 219 255 275 300 273 261 254 246 257 269 281 312 328 304 328 314 288 287 293 300 91 320 250 303 259 274 307 285 235 249 275 297 291